Location: Ferchesar
(52.6477°N, 12.4298°E)
Time: 23:54:50
(UTC+01:00)

Transit 4A - Pass Details

Date: 09 December 2021
Orbit: 864 x 981 km, 66.8° (Epoch: 19 January)

Event Time Altitude Azimuth Distance (km) Brightness Sun altitude
Rises 18:21:43 0° 204° (SSW) 3,463 11.4 -20.8°
Reaches altitude 10° 18:24:11 10° 201° (SSW) 2,540 10.6 -21.2°
Maximum altitude 18:29:58 62° 122° (ESE) 1,013 7.8 -22.0°
Enters shadow 18:31:38 45° 66° (ENE) 1,222 8.1 -22.3°
